QPF
0.04 0.02 0.00 0.00 0.00 0.01 0.02 0.02 0.02 0.03 0.01 0.00 0.00 0.00 0.00 0.00 0.00 0.00 0.00 0.00 0.00 0.00 0.00 0.00 0.00 0.00 0.00 0.00 0.00 0.00 0.00 0.00 0.00 0.00 0.00 0.00 0.00 0.00 0.00 0.00 0.00 0.00 0.00
0.03 0.03 0.01 0.01 0.00 0.01 0.01 0.02 0.02 0.03 0.05 0.02 0.01 0.01 0.00 0.00 0.00 0.00 0.00 0.00 0.00 0.00 0.00 0.00 0.00 0.00 0.00 0.00 0.00 0.00 0.00 0.00 0.00 0.00 0.00 0.00 0.00 0.00 0.00 0.00 0.00 0.00 0.00
0.02 0.02 0.02 0.01 0.01 0.01 0.01 0.02 0.04 0.04 0.06 0.06 0.04 0.04 0.02 0.01 0.00 0.00 0.00 0.00 0.00 0.00 0.00 0.00 0.00 0.00 0.00 0.00 0.00 0.00 0.00 0.00 0.00 0.00 0.00 0.00 0.00 0.00 0.00 0.00 0.00 0.00 0.00
0.01 0.02 0.01 0.01 0.02 0.02 0.03 0.07 0.06 0.08 0.07 0.07 0.09 0.06 0.06 0.09 0.07 0.02 0.00 0.00 0.00 0.00 0.00 0.00 0.00 0.00 0.00 0.00 0.00 0.00 0.00 0.00 0.00 0.00 0.00 0.00 0.00 0.00 0.00 0.00 0.00 0.00 0.00
0.00 0.01 0.01 0.01 0.01 0.02 0.01 0.03 0.08 0.11 0.11 0.12 0.07 0.09 0.10 0.11 0.16 0.15 0.04 0.00 0.00 0.00 0.00 0.00 0.00 0.00 0.00 0.00 0.00 0.00 0.00 0.00 0.00 0.00 0.00 0.00 0.00 0.00 0.00 0.00 0.00 0.00 0.00
0.01 0.00 0.00 0.00 0.00 0.00 0.00 0.00 0.02 0.05 0.07 0.10 0.11 0.09 0.08 0.06 0.05 0.08 0.12 0.07 0.02 0.00 0.00 0.00 0.00 0.00 0.00 0.00 0.00 0.00 0.00 0.00 0.00 0.00 0.00 0.00 0.00 0.00 0.00 0.00 0.00 0.00 0.00
0.01 0.01 0.01 0.01 0.01 0.00 0.01 0.01 0.00 0.01 0.01 0.03 0.06 0.15 0.17 0.16 0.17 0.16 0.19 0.17 0.12 0.03 0.01 0.00 0.00 0.00 0.00 0.00 0.00 0.00 0.00 0.00 0.00 0.00 0.00 0.00 0.00 0.00 0.00 0.00 0.00 0.00 0.00
0.00 0.00 0.00 0.01 0.02 0.01 0.01 0.01 0.01 0.01 0.01 0.01 0.01 0.01 0.07 0.09 0.09 0.07 0.12 0.18 0.28 0.27 0.17 0.09 0.05 0.01 0.00 0.00 0.00 0.00 0.00 0.00 0.00 0.00 0.00 0.00 0.00 0.00 0.00 0.00 0.00 0.00 0.00
0.00 0.00 0.00 0.00 0.02 0.02 0.02 0.01 0.01 0.01 0.01 0.01 0.02 0.02 0.03 0.04 0.05 0.06 0.07 0.09 0.15 0.25 0.28 0.25 0.19 0.11 0.03 0.01 0.00 0.01 0.01 0.02 0.02 0.02 0.01 0.00 0.00 0.00 0.00 0.00 0.00 0.00 0.00
0.00 0.00 0.00 0.00 0.00 0.01 0.03 0.04 0.03 0.02 0.02 0.02 0.03 0.03 0.07 0.07 0.08 0.04 0.04 0.07 0.09 0.12 0.15 0.18 0.20 0.17 0.15 0.12 0.08 0.06 0.06 0.04 0.04 0.03 0.01 0.00 0.00 0.00 0.00 0.00 0.00 0.00 0.00
0.00 0.00 0.00 0.00 0.00 0.00 0.00 0.01 0.02 0.02 0.02 0.03 0.02 0.03 0.03 0.04 0.04 0.04 0.02 0.03 0.04 0.08 0.11 0.12 0.13 0.17 0.21 0.25 0.23 0.18 0.11 0.07 0.05 0.01 0.00 0.00 0.00 0.00 0.00 0.00 0.00 0.00 0.00
0.00 0.00 0.00 0.00 0.00 0.00 0.00 0.00 0.00 0.00 0.00 0.00 0.01 0.02 0.01 0.01 0.02 0.02 0.02 0.02 0.02 0.03 0.06 0.08 0.08 0.14 0.15 0.17 0.18 0.13 0.10 0.08 0.03 0.01 0.00 0.00 0.00 0.00 0.00 0.00 0.00 0.00 0.00
0.00 0.00 0.00 0.00 0.00 0.00 0.00 0.00 0.00 0.00 0.00 0.00 0.00 0.00 0.01 0.02 0.03 0.05 0.06 0.05 0.03 0.02 0.03 0.09 0.11 0.13 0.12 0.10 0.08 0.08 0.06 0.03 0.00 0.00 0.00 0.00 0.00 0.00 0.00 0.00 0.00 0.00 0.00
0.00 0.00 0.00 0.00 0.00 0.00 0.00 0.00 0.00 0.00 0.00 0.00 0.00 0.00 0.00 0.00 0.00 0.01 0.03 0.04 0.04 0.04 0.06 0.09 0.09 0.09 0.09 0.08 0.06 0.05 0.03 0.01 0.00 0.00 0.00 0.00 0.00 0.00 0.00 0.00 0.00 0.00 0.00
0.00 0.00 0.00 0.00 0.00 0.00 0.00 0.00 0.00 0.00 0.00 0.00 0.00 0.00 0.00 0.00 0.00 0.00 0.01 0.00 0.01 0.03 0.04 0.03 0.04 0.04 0.02 0.02 0.02 0.01 0.01 0.01 0.00 0.00 0.00 0.00 0.00 0.00 0.00 0.00 0.00 0.00 0.00
0.00 0.00 0.00 0.00 0.00 0.00 0.00 0.00 0.00 0.00 0.00 0.00 0.00 0.00 0.00 0.00 0.00 0.00 0.00 0.01 0.01 0.02 0.01 0.00 0.00 0.00 0.00 0.01 0.01 0.00 0.00 0.00 0.00 0.00 0.00 0.00 0.00 0.00 0.00 0.00 0.00 0.00 0.00
0.02 0.02 0.01 0.00 0.00 0.00 0.00 0.00 0.00 0.00 0.00 0.00 0.00 0.00 0.00 0.00 0.00 0.00 0.00 0.00 0.01 0.02 0.00 0.00 0.00 0.00 0.01 0.01 0.00 0.00 0.00 0.00 0.00 0.00 0.00 0.00 0.00 0.00 0.00 0.00 0.00 0.00 0.00
0.00 0.01 0.01 0.00 0.00 0.00 0.00 0.00 0.00 0.00 0.00 0.00 0.00 0.00 0.00 0.00 0.00 0.00 0.00 0.00 0.00 0.00 0.00 0.00 0.00 0.00 0.01 0.00 0.00 0.00 0.00 0.00 0.00 0.00 0.00 0.00 0.00 0.00 0.00 0.00 0.00 0.00 0.00
0.00 0.00 0.00 0.00 0.00 0.00 0.00 0.00 0.00 0.00 0.00 0.00 0.00 0.00 0.00 0.00 0.00 0.00 0.00 0.00 0.00 0.00 0.00 0.00 0.00 0.00 0.00 0.00 0.00 0.00 0.00 0.00 0.00 0.00 0.00 0.00 0.00 0.00 0.00 0.01 0.01 0.01 0.01
0.00 0.00 0.00 0.00 0.00 0.00 0.00 0.00 0.00 0.00 0.00 0.00 0.00 0.00 0.00 0.00 0.00 0.00 0.00 0.00 0.01 0.01 0.01 0.02 0.03 0.02 0.02 0.02 0.01 0.01 0.01 0.00 0.00 0.00 0.00 0.00 0.01 0.01 0.02 0.03 0.04 0.04 0.04
0.00 0.00 0.00 0.00 0.00 0.00 0.00 0.00 0.00 0.00 0.00 0.00 0.00 0.00 0.00 0.00 0.00 0.00 0.00 0.00 0.00 0.00 0.00 0.00 0.01 0.02 0.02 0.02 0.02 0.02 0.01 0.01 0.01 0.01 0.01 0.02 0.02 0.03 0.03 0.04 0.04 0.04 0.04
0.00 0.00 0.00 0.00 0.00 0.00 0.00 0.00 0.00 0.00 0.00 0.00 0.00 0.00 0.00 0.00 0.00 0.00 0.00 0.00 0.00 0.00 0.00 0.00 0.00 0.00 0.00 0.01 0.01 0.02 0.03 0.03 0.03 0.03 0.03 0.03 0.04 0.04 0.04 0.04 0.04 0.04 0.03
0.00 0.00 0.00 0.00 0.00 0.00 0.00 0.00 0.00 0.00 0.00 0.00 0.00 0.00 0.00 0.00 0.00 0.00 0.00 0.00 0.00 0.00 0.00 0.00 0.00 0.00 0.01 0.01 0.01 0.01 0.01 0.01 0.01 0.01 0.02 0.02 0.02 0.03 0.03 0.04 0.03 0.04 0.02
0.00 0.00 0.00 0.00 0.00 0.00 0.00 0.00 0.00 0.00 0.00 0.00 0.00 0.00 0.00 0.00 0.00 0.00 0.00 0.00 0.00 0.00 0.00 0.00 0.00 0.00 0.00 0.00 0.00 0.00 0.00 0.01 0.01 0.02 0.02 0.03 0.03 0.02 0.03 0.04 0.03 0.02 0.01
0.00 0.00 0.00 0.00 0.00 0.00 0.00 0.00 0.00 0.00 0.00 0.00 0.00 0.00 0.00 0.00 0.00 0.00 0.00 0.00 0.00 0.00 0.00 0.00 0.00 0.00 0.00 0.00 0.00 0.00 0.01 0.02 0.02 0.03 0.03 0.04 0.04 0.03 0.03 0.03 0.02 0.02 0.01
0.00 0.00 0.00 0.00 0.00 0.00 0.00 0.00 0.00 0.00 0.00 0.00 0.00 0.00 0.00 0.00 0.00 0.00 0.00 0.00 0.00 0.00 0.00 0.00 0.00 0.00 0.00 0.00 0.00 0.00 0.00 0.00 0.00 0.00 0.00 0.01 0.01 0.01 0.01 0.01 0.01 0.01 0.01
MSLP
1005.10 1006.26 1007.17 1007.30 1008.18 1008.81 1009.32 1009.96 1010.38 1010.84 1011.47 1011.89 1012.19 1012.82 1013.17 1013.73 1014.31 1014.77 1015.46 1015.88 1016.57 1017.02 1017.39 1017.78 1018.41 1018.78 1019.05 1019.29 1019.50 1019.86 1020.19 1020.64 1021.20 1022.39 1023.00 1024.07 1024.92 1025.51 1026.21 1026.05 1026.67 1026.82 1027.17
1004.96 1005.28 1006.17 1007.23 1007.88 1008.36 1008.80 1009.17 1009.81 1010.33 1010.79 1011.18 1011.74 1012.34 1012.85 1013.16 1013.65 1014.07 1014.66 1014.99 1015.69 1016.44 1016.83 1017.34 1017.78 1018.30 1018.83 1019.18 1019.57 1019.70 1020.05 1020.29 1020.81 1021.98 1023.11 1024.01 1024.56 1025.23 1025.78 1026.33 1026.49 1026.59 1026.98
1004.54 1005.21 1005.54 1006.98 1007.70 1008.24 1008.46 1008.94 1009.47 1010.09 1010.44 1010.57 1011.42 1011.77 1012.29 1012.59 1013.07 1013.42 1013.85 1014.14 1014.60 1015.17 1016.34 1016.86 1017.39 1017.81 1018.29 1018.57 1019.06 1019.67 1019.97 1020.32 1020.56 1021.44 1022.39 1023.48 1024.32 1025.04 1025.84 1026.22 1026.67 1026.85 1027.04
1003.78 1004.78 1005.26 1005.75 1006.77 1007.53 1008.17 1008.53 1009.00 1009.21 1009.74 1010.28 1010.73 1010.91 1011.49 1012.02 1012.56 1013.16 1013.64 1013.70 1013.90 1014.42 1015.07 1016.02 1016.38 1016.94 1017.64 1018.09 1018.46 1019.20 1019.93 1020.66 1021.00 1021.30 1022.44 1023.26 1023.84 1024.60 1025.61 1026.21 1026.70 1027.13 1027.41
1003.83 1004.46 1004.96 1005.28 1005.81 1006.91 1007.59 1007.68 1007.97 1008.61 1009.01 1009.23 1009.92 1010.45 1010.64 1011.13 1012.11 1012.34 1013.15 1013.23 1013.41 1013.70 1014.58 1014.90 1015.82 1016.09 1016.78 1017.49 1018.12 1018.56 1019.18 1020.38 1021.09 1021.37 1022.28 1022.99 1023.31 1023.79 1024.82 1025.53 1026.04 1026.68 1026.92
1003.65 1004.23 1004.84 1005.06 1005.45 1006.04 1006.82 1007.12 1007.47 1007.94 1008.37 1008.93 1009.15 1009.55 1010.34 1010.77 1010.90 1011.82 1012.03 1013.06 1013.23 1012.79 1013.80 1014.88 1015.14 1016.13 1016.42 1016.86 1017.58 1018.27 1018.81 1019.69 1020.23 1020.63 1021.57 1022.66 1022.59 1022.90 1023.94 1024.75 1025.58 1026.34 1026.63
1003.66 1003.90 1004.28 1004.66 1004.89 1005.43 1006.00 1006.38 1007.11 1007.50 1008.00 1008.36 1008.96 1008.67 1009.58 1010.46 1010.77 1011.17 1012.28 1012.61 1013.45 1013.17 1013.44 1014.15 1014.91 1015.85 1016.70 1017.07 1017.29 1017.93 1018.64 1019.32 1019.79 1019.76 1020.81 1021.81 1022.30 1022.48 1022.97 1024.05 1024.93 1025.39 1025.63
1004.11 1004.05 1004.30 1004.72 1004.76 1005.21 1005.73 1006.09 1006.54 1006.93 1007.35 1007.63 1008.24 1008.53 1009.47 1009.66 1010.06 1010.27 1011.00 1012.10 1012.66 1012.40 1013.61 1014.07 1014.46 1015.67 1016.29 1017.37 1017.41 1017.89 1018.45 1019.10 1020.01 1019.76 1020.42 1021.13 1021.59 1022.22 1022.09 1023.08 1024.12 1025.24 1025.81
1004.67 1004.99 1005.14 1005.20 1004.86 1005.11 1005.45 1005.77 1006.28 1006.70 1006.98 1007.50 1007.63 1007.97 1008.66 1009.10 1009.70 1010.79 1010.44 1012.03 1012.16 1012.18 1013.46 1013.42 1013.52 1014.29 1016.27 1016.60 1016.84 1018.10 1018.30 1018.95 1019.52 1019.93 1020.40 1020.88 1021.49 1021.96 1022.44 1023.43 1024.12 1025.03 1025.65
1005.49 1005.60 1005.79 1005.71 1005.55 1005.68 1005.89 1006.23 1006.28 1006.48 1006.97 1007.18 1007.51 1008.08 1008.31 1008.84 1009.21 1010.08 1010.60 1011.19 1012.18 1012.85 1012.17 1013.37 1013.71 1013.69 1014.72 1015.57 1016.20 1017.36 1018.09 1018.89 1019.62 1019.99 1020.71 1021.46 1021.73 1021.89 1022.20 1022.68 1023.58 1024.42 1024.84
1006.26 1006.32 1006.24 1006.38 1006.44 1006.70 1006.72 1006.75 1006.72 1006.93 1007.15 1007.66 1008.08 1008.38 1008.37 1008.98 1009.16 1009.83 1010.59 1011.03 1011.80 1012.76 1011.39 1012.54 1013.31 1014.02 1014.36 1014.81 1015.61 1016.54 1016.88 1018.28 1019.12 1019.89 1020.81 1021.44 1021.94 1022.07 1022.42 1022.46 1022.78 1023.38 1023.89
1006.81 1006.98 1006.97 1006.97 1007.06 1007.10 1007.18 1007.30 1007.48 1007.67 1007.95 1008.38 1008.64 1008.89 1009.13 1009.21 1009.56 1010.00 1010.36 1011.17 1011.80 1011.31 1011.50 1012.40 1013.04 1013.89 1014.24 1014.71 1015.43 1015.75 1016.70 1017.64 1018.79 1019.90 1020.56 1021.12 1021.70 1022.03 1022.37 1022.76 1022.96 1023.16 1023.41
1007.57 1007.72 1007.68 1007.55 1007.52 1007.20 1007.29 1007.53 1007.55 1008.00 1008.34 1008.79 1008.93 1009.29 1009.50 1009.36 1009.31 1009.64 1010.14 1010.60 1011.10 1011.60 1011.79 1012.63 1013.24 1013.91 1014.58 1014.88 1015.38 1015.55 1016.83 1017.77 1018.48 1019.31 1019.90 1020.74 1021.23 1022.05 1022.54 1023.06 1023.55 1023.55 1023.92
1008.35 1008.64 1008.88 1008.87 1008.75 1008.52 1008.42 1008.30 1008.45 1008.81 1008.97 1008.98 1009.09 1009.50 1009.85 1009.61 1009.61 1009.89 1010.30 1010.82 1011.26 1012.15 1012.53 1012.89 1013.42 1013.78 1014.35 1014.54 1015.45 1016.02 1016.68 1017.38 1017.97 1018.68 1019.45 1020.15 1020.99 1022.14 1022.62 1023.01 1023.39 1023.73 1024.23
1009.32 1009.55 1009.70 1009.76 1009.79 1009.79 1009.95 1009.90 1009.70 1010.06 1009.91 1009.54 1009.96 1009.87 1009.77 1009.91 1010.22 1010.45 1010.76 1011.11 1011.47 1011.99 1012.68 1013.21 1013.74 1014.06 1014.32 1014.50 1015.27 1015.94 1016.86 1017.15 1017.94 1018.50 1019.37 1020.11 1020.60 1021.84 1022.47 1022.57 1022.90 1023.81 1024.10
1010.38 1010.60 1010.64 1010.47 1010.49 1010.22 1010.44 1010.76 1010.84 1010.80 1010.69 1010.56 1010.43 1010.30 1010.38 1010.54 1010.64 1010.82 1010.98 1011.32 1011.75 1012.21 1012.92 1013.69 1014.04 1014.15 1014.40 1014.67 1015.15 1015.90 1016.73 1017.10 1017.84 1018.33 1018.77 1019.54 1020.31 1021.23 1021.88 1022.14 1022.30 1022.98 1023.41
1011.81 1012.06 1011.91 1011.71 1011.57 1011.42 1011.47 1011.27 1011.49 1011.68 1011.50 1011.54 1011.43 1011.45 1011.44 1011.52 1011.19 1011.08 1011.29 1011.55 1011.99 1012.55 1013.08 1013.47 1013.85 1014.16 1014.51 1014.80 1015.25 1015.90 1016.35 1016.95 1017.20 1017.99 1018.63 1018.92 1019.52 1020.38 1021.13 1021.61 1022.10 1022.56 1022.83
1013.03 1013.07 1012.83 1012.84 1012.76 1012.61 1012.43 1012.30 1012.26 1012.19 1012.25 1012.50 1012.65 1012.53 1012.43 1012.28 1012.11 1012.01 1012.12 1012.27 1012.58 1012.90 1013.26 1013.57 1013.89 1014.13 1014.44 1014.77 1015.13 1015.61 1016.17 1016.70 1017.06 1017.49 1018.23 1018.42 1018.96 1019.64 1020.41 1021.09 1021.51 1021.69 1022.05
1014.16 1014.08 1014.04 1013.94 1013.78 1013.65 1013.44 1013.27 1013.19 1013.13 1013.16 1013.43 1013.57 1013.48 1013.40 1013.29 1013.19 1013.14 1013.18 1013.29 1013.35 1013.43 1013.69 1013.89 1014.07 1014.20 1014.38 1014.50 1014.83 1015.21 1015.67 1016.20 1016.68 1017.22 1017.66 1018.07 1018.52 1019.16 1019.82 1020.22 1020.52 1020.73 1021.26
1015.54 1015.45 1015.17 1015.04 1014.91 1014.76 1014.58 1014.37 1014.27 1014.20 1014.11 1014.11 1014.15 1014.05 1013.85 1013.69 1013.83 1014.07 1014.11 1014.10 1014.07 1014.05 1014.17 1014.31 1014.37 1014.41 1014.47 1014.58 1014.80 1015.04 1015.39 1015.79 1016.26 1016.73 1017.15 1017.66 1018.19 1018.65 1018.96 1019.26 1019.52 1020.01 1020.46
1016.61 1016.46 1016.24 1016.08 1016.03 1015.88 1015.73 1015.60 1015.48 1015.30 1015.13 1015.00 1014.94 1014.83 1014.54 1014.39 1014.52 1014.54 1014.56 1014.60 1014.65 1014.57 1014.61 1014.64 1014.70 1014.74 1014.75 1014.84 1015.03 1015.26 1015.49 1015.72 1015.99 1016.37 1016.74 1017.05 1017.36 1017.70 1017.99 1018.41 1018.80 1019.24 1019.64
1017.57 1017.38 1017.21 1017.07 1016.91 1016.76 1016.61 1016.49 1016.34 1016.16 1016.03 1015.88 1015.71 1015.56 1015.31 1015.21 1015.19 1015.08 1015.03 1015.04 1015.08 1015.04 1014.96 1014.94 1014.88 1014.84 1014.86 1014.97 1015.11 1015.26 1015.42 1015.57 1015.77 1015.97 1016.18 1016.40 1016.71 1017.07 1017.47 1017.83 1018.21 1018.59 1018.96
1018.33 1018.13 1017.92 1017.76 1017.61 1017.37 1017.16 1016.97 1016.84 1016.71 1016.59 1016.45 1016.25 1016.07 1015.88 1015.73 1015.59 1015.53 1015.44 1015.32 1015.25 1015.17 1015.08 1015.08 1015.03 1014.92 1014.84 1014.88 1014.93 1014.99 1015.11 1015.20 1015.33 1015.54 1015.77 1016.02 1016.30 1016.63 1016.95 1017.23 1017.53 1017.92 1018.23
1018.93 1018.66 1018.43 1018.26 1018.10 1017.88 1017.70 1017.54 1017.40 1017.23 1017.09 1016.91 1016.73 1016.56 1016.39 1016.20 1016.09 1016.00 1015.91 1015.79 1015.65 1015.44 1015.17 1015.13 1015.08 1015.05 1014.92 1014.86 1014.83 1014.89 1014.97 1015.03 1015.11 1015.23 1015.39 1015.61 1015.80 1016.08 1016.31 1016.57 1016.78 1017.10 1017.49
1019.34 1019.11 1018.85 1018.59 1018.42 1018.25 1018.05 1017.84 1017.67 1017.52 1017.41 1017.27 1017.11 1016.95 1016.80 1016.65 1016.44 1016.30 1016.22 1016.12 1015.98 1015.77 1015.58 1015.38 1015.20 1015.12 1015.01 1014.92 1014.87 1014.82 1014.78 1014.85 1014.96 1015.00 1015.10 1015.24 1015.39 1015.53 1015.78 1016.09 1016.42 1016.73 1017.05
1019.62 1019.40 1019.18 1018.93 1018.75 1018.58 1018.39 1018.16 1017.93 1017.73 1017.57 1017.42 1017.29 1017.16 1017.00 1016.83 1016.57 1016.40 1016.39 1016.34 1016.27 1016.19 1015.90 1015.58 1015.43 1015.35 1015.30 1015.12 1014.92 1014.78 1014.65 1014.65 1014.69 1014.78 1014.95 1014.98 1015.12 1015.31 1015.49 1015.73 1015.96 1016.15 1016.50
Thickness
5602 5597 5594 5599 5600 5610 5612 5614 5616 5616 5615 5616 5620 5620 5621 5621 5622 5623 5621 5622 5619 5618 5618 5617 5614 5614 5613 5612 5612 5609 5607 5604 5600 5591 5585 5575 5567 5562 5556 5556 5550 5547 5543
5594 5595 5593 5588 5587 5596 5606 5611 5609 5609 5612 5612 5612 5611 5612 5615 5615 5617 5617 5618 5615 5612 5612 5609 5608 5605 5603 5602 5600 5599 5597 5596 5592 5580 5573 5564 5560 5554 5548 5543 5539 5536 5534
5586 5584 5587 5581 5577 5580 5592 5599 5601 5602 5605 5607 5603 5605 5605 5608 5609 5612 5613 5614 5612 5611 5604 5602 5599 5598 5596 5596 5592 5587 5585 5583 5582 5574 5566 5557 5550 5543 5535 5531 5528 5525 5521
5583 5580 5580 5583 5578 5574 5578 5587 5592 5598 5598 5598 5600 5602 5602 5602 5602 5603 5601 5605 5607 5605 5601 5596 5595 5593 5588 5586 5584 5577 5571 5566 5564 5562 5553 5545 5540 5534 5524 5519 5514 5511 5507
5573 5573 5575 5576 5575 5572 5569 5579 5587 5588 5591 5595 5597 5596 5600 5598 5595 5592 5590 5595 5596 5596 5592 5593 5587 5587 5581 5576 5572 5569 5565 5554 5550 5549 5540 5534 5532 5526 5518 5513 5507 5500 5499
5569 5565 5564 5569 5569 5570 5564 5571 5577 5579 5582 5585 5587 5588 5588 5590 5592 5588 5590 5579 5581 5589 5584 5578 5578 5570 5568 5565 5560 5556 5553 5546 5542 5538 5531 5522 5523 5520 5511 5504 5499 5491 5489
5561 5562 5561 5564 5568 5566 5560 5563 5565 5571 5571 5576 5576 5581 5579 5576 5581 5581 5573 5572 5565 5573 5573 5570 5565 5557 5550 5548 5549 5545 5539 5533 5529 5531 5523 5513 5510 5509 5505 5494 5488 5484 5482
5549 5553 5554 5554 5559 5558 5556 5554 5556 5557 5562 5565 5568 5569 5566 5569 5570 5572 5568 5561 5558 5564 5555 5555 5554 5545 5540 5531 5533 5531 5527 5521 5513 5515 5510 5503 5500 5493 5495 5486 5480 5472 5467
5536 5535 5537 5540 5546 5548 5548 5550 5551 5548 5550 5550 5556 5557 5556 5557 5554 5550 5558 5547 5549 5552 5543 5548 5549 5542 5526 5525 5523 5514 5513 5507 5502 5500 5496 5489 5482 5478 5476 5469 5464 5458 5455
5518 5519 5520 5522 5527 5530 5533 5534 5536 5540 5540 5542 5543 5541 5543 5543 5543 5540 5536 5537 5531 5528 5538 5532 5530 5530 5522 5518 5514 5506 5499 5493 5488 5485 5479 5471 5467 5468 5465 5462 5455 5448 5445
5500 5502 5506 5507 5510 5512 5513 5516 5520 5523 5525 5525 5527 5529 5532 5530 5532 5527 5521 5520 5517 5512 5527 5520 5516 5511 5509 5506 5501 5495 5493 5484 5476 5470 5465 5460 5456 5455 5452 5452 5449 5445 5439
5486 5486 5490 5493 5495 5497 5499 5501 5502 5504 5505 5506 5508 5510 5513 5516 5516 5513 5513 5505 5501 5511 5510 5504 5500 5494 5493 5492 5486 5487 5480 5472 5464 5456 5455 5452 5448 5444 5440 5436 5434 5432 5429
5471 5472 5474 5478 5481 5486 5491 5492 5496 5495 5495 5494 5495 5494 5496 5501 5505 5504 5503 5500 5497 5495 5493 5484 5481 5479 5475 5475 5474 5474 5464 5458 5454 5449 5446 5440 5437 5430 5425 5421 5414 5415 5410
5454 5454 5454 5455 5459 5464 5467 5473 5476 5475 5476 5481 5485 5485 5481 5485 5488 5488 5487 5484 5481 5474 5472 5471 5466 5465 5463 5465 5458 5455 5454 5449 5445 5440 5435 5431 5425 5415 5409 5405 5401 5397 5391
5437 5437 5438 5440 5441 5442 5442 5446 5452 5449 5454 5463 5462 5466 5469 5470 5469 5469 5469 5468 5467 5465 5461 5459 5453 5451 5452 5451 5447 5443 5438 5437 5432 5428 5421 5416 5411 5399 5394 5393 5389 5380 5376
5418 5419 5421 5425 5427 5432 5431 5429 5430 5433 5437 5441 5445 5449 5451 5452 5453 5454 5454 5453 5451 5449 5445 5441 5439 5440 5438 5438 5434 5429 5424 5421 5417 5413 5410 5405 5397 5389 5383 5381 5379 5371 5366
5394 5395 5399 5403 5407 5411 5412 5416 5416 5416 5420 5422 5425 5427 5430 5432 5437 5440 5440 5439 5436 5433 5430 5429 5427 5426 5424 5422 5420 5416 5414 5407 5405 5398 5394 5393 5387 5380 5373 5368 5362 5355 5350
5376 5377 5381 5384 5387 5391 5394 5398 5400 5402 5403 5402 5403 5406 5409 5412 5415 5419 5420 5420 5419 5417 5415 5415 5412 5412 5410 5409 5406 5403 5399 5394 5392 5389 5381 5379 5374 5368 5360 5352 5347 5345 5341
5361 5364 5365 5367 5370 5373 5377 5380 5383 5385 5387 5386 5386 5388 5390 5393 5395 5397 5398 5397 5398 5399 5397 5397 5397 5396 5396 5395 5393 5390 5386 5382 5377 5372 5368 5364 5360 5353 5348 5344 5340 5338 5330
5341 5343 5347 5350 5353 5355 5358 5361 5364 5366 5368 5370 5371 5373 5376 5378 5378 5377 5377 5378 5379 5379 5379 5379 5379 5378 5378 5377 5376 5374 5371 5368 5363 5359 5356 5351 5345 5340 5338 5335 5331 5325 5319
5325 5327 5330 5332 5334 5336 5338 5341 5343 5346 5348 5351 5352 5354 5358 5360 5360 5360 5361 5360 5360 5361 5361 5361 5360 5360 5360 5360 5358 5356 5354 5352 5349 5345 5341 5338 5335 5332 5328 5323 5318 5313 5307
5310 5312 5314 5316 5318 5320 5322 5323 5325 5328 5330 5332 5334 5336 5339 5340 5341 5342 5343 5343 5342 5343 5343 5344 5344 5344 5344 5343 5342 5340 5339 5337 5335 5332 5330 5328 5325 5321 5316 5310 5305 5299 5294
5295 5297 5299 5301 5303 5305 5307 5310 5311 5312 5314 5316 5318 5320 5322 5323 5325 5326 5327 5328 5329 5329 5330 5330 5330 5330 5330 5330 5329 5328 5327 5325 5323 5320 5317 5313 5309 5304 5300 5295 5290 5285 5281
5281 5283 5285 5287 5288 5291 5293 5294 5296 5298 5299 5301 5303 5304 5306 5307 5308 5309 5309 5310 5311 5312 5314 5313 5313 5313 5313 5313 5312 5310 5308 5306 5304 5302 5298 5295 5292 5288 5283 5278 5274 5269 5265
5268 5270 5272 5274 5276 5278 5280 5282 5283 5285 5286 5286 5287 5288 5288 5289 5290 5291 5291 5291 5291 5292 5293 5293 5293 5293 5293 5293 5291 5290 5289 5287 5284 5282 5278 5275 5272 5269 5265 5261 5256 5251 5248
5254 5256 5258 5260 5262 5263 5264 5266 5268 5269 5269 5270 5270 5270 5271 5271 5272 5273 5272 5272 5271 5270 5271 5272 5271 5270 5269 5268 5267 5266 5264 5262 5260 5257 5254 5252 5250 5247 5244 5241 5238 5235 5232